EGHI

Southampton Airport

Airport
ICAO code
EGHI
IATA Code
SOU
Summary
ICAO Region
EUR
ICAO Territory
Location

Eastleigh,Southampton, England.,

Serving
Southampton
Elevation
44 ft
Coordinates
50° 56' 59" N , 1° 21' 23" W
KCC
Metar
Observation
EGHI 011220Z 27011KT 230V300 9999 SCT026 10/04 Q1027
Station
Southampton / Weather Centre
Date/Time
2023-02-01 12:20:00
Wind direction
270°
Wind speed
11 kts
Lowest cloud amount
scattered clouds
Temperature
10°C
Dew point
4°C
Humidity
66%
QNH
1027 hPa
Weather condition
n/a

Description

Small domestic and international airport serving the city of Southampton and environs; has co-located railway station.

Climatology

Temperate Marine climate/Oceanic climate (Köppen climate classification Cfb). Moderately cool summer and comparatively warm winter with a temperature range of only 14°C. Prevailing south-westerly winds from the Atlantic Ocean.

Runways

Designator Length Width Surface Rops
2/20 1723 37 ASP Yes/Yes

SKYbrary Partners:

Safety knowledge contributed by: